Location: Unspecified
(56.5167°N, 0.0000°E)
Time: 06:10:53
(UTC+02:00)

Resurs 1-4 Rocket - Pass Details

Date: 24 January 2018
Orbit: 799 x 814 km, 98.5° (Epoch: 25 May)

Event Time Altitude Azimuth Distance (km) Brightness Sun altitude
Rises 05:55:05 0° 12° (NNE) 3,336 5.5 -26.5°
Reaches altitude 10° 05:58:30 10° 349° (N) 2,404 4.5 -26.0°
Enters shadow 05:58:42 11° 347° (NNW) 2,364 4.4 -26.0°
